Home   Weather   Kolonia   Past weeks
Flag for Micronesia

Past Weather in Kolonia, Pohnpei, Micronesia — Yesterday and Last 2 Weeks

Now
76 °F

Passing clouds.


Feels Like: 75 °F
Forecast: 87 / 77 °F
Wind: 3 mph from Southeast

Location: Pohnpei

Current Time: Oct 23, 2019 at 6:19:37 am

Latest Report: Oct 23, 2019 at 4:54 am


Visibility: 15 mi

Pressure: 29.80 "Hg

Humidity: 94%

Dew Point: 74 °F

Location of KoloniaLocation

Past Weather in Kolonia — Graph

°F

Kolonia Temperature Yesterday

Maximum temperature yesterday: 90 °F (at 10:53 am)
Minimum temperature yesterday: 76 °F (at 5:52 am)
Average temperature yesterday: 83 °F

High & Low Weather Summary for the Past Weeks

 TemperatureHumidityPressure
High91 °F (Oct 13, 10:52 am)100% (Oct 9, 11:10 pm)29.93 "Hg (Oct 9, 11:10 pm)
Low74 °F (Oct 17, 12:50 am)50% (Oct 17, 10:55 am)29.72 "Hg (Oct 10, 3:50 pm)
Average81 °F87%29.84 "Hg
* Reported Oct 8 4:50 am — Oct 23 4:54 am, Kolonia. Weather by CustomWeather, © 2019

Note: Actual official high and low records may vary slightly from our data, if they occured in-between our weather recording intervals... More about our weather records

Advertising

Kolonia Weather History for the Previous 24 Hours

Scroll right to see more
 ConditionsComfort  
Time TempWeatherWind HumidityBarometerVisibility
4:54 am
Wed, Oct 23
76 °FPassing clouds.3 mph94%29.80 "Hg15 mi
3:54 am76 °FPassing clouds.5 mph96%29.79 "Hg15 mi
2:52 am76 °FMostly cloudy.3 mph96%29.78 "Hg15 mi
1:55 am78 °FMostly cloudy.3 mph94%29.80 "Hg15 mi
12:53 am78 °FMostly cloudy.3 mph92%29.81 "Hg15 mi
11:50 pm
Tue, Oct 22
78 °FMostly cloudy.3 mph93%29.83 "Hg15 mi
10:50 pm78 °FMostly cloudy.3 mph92%29.85 "Hg15 mi
9:52 pm78 °FSprinkles. Mostly cloudy.No wind91%29.85 "Hg15 mi
8:53 pm80 °FPassing clouds.3 mph87%29.85 "Hg15 mi
7:51 pm80 °FPassing clouds.3 mph88%29.83 "Hg15 mi
6:50 pm83 °FPassing clouds.No wind79%29.80 "Hg15 mi
5:52 pm85 °FScattered clouds.3 mph71%29.78 "Hg15 mi
4:52 pm87 °FScattered clouds.6 mph68%29.75 "Hg15 mi
3:52 pm88 °FPartly sunny.5 mph64%29.73 "Hg15 mi
2:53 pm90 °FScattered clouds.7 mph68%29.74 "Hg15 mi
1:53 pm89 °FBroken clouds.7 mph70%29.75 "Hg15 mi
12:53 pm88 °FScattered clouds.7 mph70%29.78 "Hg15 mi
11:51 am88 °FScattered clouds.6 mph73%29.80 "Hg15 mi
10:53 am90 °FScattered clouds.6 mph68%29.83 "Hg15 mi
9:52 am87 °FScattered clouds.5 mph60%29.85 "Hg15 mi
8:53 am86 °FPartly sunny.5 mph73%29.85 "Hg15 mi
7:50 am83 °FScattered clouds.2 mph84%29.85 "Hg15 mi
6:52 am77 °FSprinkles. Partly sunny.3 mph95%29.84 "Hg14 mi
Weather by CustomWeather, © 2019

See weather overview